Location: Владивосток
(43.1151°N, 131.8856°E)
Time: 02:32:45
(UTC+10:00)

SO-50 - Visible Passes

Search period start: 17 April 2024 00:00
Search period end: 27 April 2024 00:00
Orbit: 611 x 656 km, 64.6° (Epoch: 16 April)

Date Brightness Start Highest point End Pass type
(mag) Time Alt. Az. Time Alt. Az. Time Alt. Az.
17 Apr ? 00:47:17 10° NNW 00:48:13 16° NNW 00:48:13 16° NNW visible
17 Apr ? 23:29:40 10° N 23:32:03 19° NNE 23:32:03 19° NNE visible
18 Apr ? 01:09:16 10° NW 01:09:28 11° NW 01:09:28 11° NW visible
18 Apr ? 23:51:08 10° NNW 23:53:17 25° N 23:53:17 25° N visible
19 Apr ? 22:33:55 10° N 22:36:28 15° NE 22:37:08 14° NE visible
20 Apr ? 00:12:54 10° NNW 00:14:33 22° NNW 00:14:33 22° NNW visible
20 Apr ? 22:55:05 10° NNW 22:58:24 25° NE 22:58:24 25° NE visible
21 Apr ? 00:35:01 10° NW 00:35:50 15° NW 00:35:50 15° NW visible
21 Apr ? 21:38:46 10° NNE 21:39:44 11° NNE 21:40:41 10° NE visible
21 Apr ? 23:16:39 10° NNW 23:19:42 37° N 23:19:42 37° N visible
22 Apr ? 21:59:09 10° N 22:02:14 18° NE 22:03:36 16° ENE visible
22 Apr ? 23:38:30 10° NW 23:41:02 33° NW 23:41:02 33° NW visible
23 Apr ? 22:20:29 10° NNW 22:24:32 32° NE 22:24:57 32° ENE visible
24 Apr ? 00:00:46 10° NW 00:02:23 19° WNW 00:02:23 19° WNW visible
24 Apr ? 21:03:29 10° N 21:05:31 13° NNE 21:07:31 10° ENE visible
24 Apr ? 22:42:09 10° NNW 22:46:19 65° NNE 22:46:19 65° NNE visible
25 Apr ? 21:24:25 10° N 21:27:55 22° NE 21:30:18 15° E visible
25 Apr ? 23:04:06 10° NW 23:07:44 47° W 23:07:44 47° W visible
26 Apr ? 21:45:52 10° NNW 21:50:06 41° NE 21:51:44 29° E visible
26 Apr ? 23:26:34 10° WNW 23:29:10 22° W 23:29:10 22° W visible
